User: anonymous
Location: Blue Mountain Vista Observatory
(40.6992°N, 75.9422°W)
Time: 01:19:27
(UTC-04:00)
Language:

Cosmos 1151 - Orbit

View from above orbital plane
View from above orbital plane
View from above satellite
View from above satellite

Ground track
Ground track

The orbit data is extracted from the following two-line orbital elements,

1 11671U 80005A   14107.85542126  .00131933  00000-0  84485-3 0  4093
2 11671 082.4694 023.4644 0005581 130.0206 271.8506 15.75879996878643
Epoch (UTC): 17 April 2014 20:31:48
Eccentricity: 0.0005581
inclination: 82.4694°
perigee height: 338 km
apogee height: 346 km
right ascension of ascending node: 23.4644°
argument of perigee: 130.0206°
revolutions per day: 15.75879996
mean anomaly at epoch: 271.8506°
orbit number at epoch: 87864

The dashed part of the orbit path shows where the satellite is in the earth's shadow,  

DLR